Location: Grand Rapids
(42.9630°N, 85.6680°W)
Time: 02:20:41
(UTC-04:00)

Vanguard 1 Rocket - Visible Passes

Search period start: 30 May 2024 00:00
Search period end: 09 June 2024 00:00
Orbit: 650 x 4220 km, 34.3° (Epoch: 29 May)

Date Brightness Start Highest point End Pass type
(mag) Time Alt. Az. Time Alt. Az. Time Alt. Az.
30 May 11.7 05:02:11 10° SSE 05:16:02 18° SE 05:29:22 10° E visible
01 Jun 11.5 04:59:23 10° S 05:16:04 23° SE 05:32:26 10° E visible
02 Jun 11.6 03:54:00 10° SE 04:02:29 13° SE 04:11:11 10° ESE visible
03 Jun 11.4 04:57:38 10° S 05:16:01 28° SE 05:34:37 10° E visible
04 Jun 11.4 03:49:29 10° SSE 04:02:20 18° SE 04:16:01 10° E visible
05 Jun 11.2 04:56:34 10° SSW 05:15:55 34° SE 05:36:17 10° E visible
06 Jun 11.2 03:47:06 10° S 04:02:06 23° SE 04:18:54 10° E visible
07 Jun 11.4 02:43:09 10° SE 02:49:07 12° ESE 02:55:29 10° ESE visible
07 Jun 11.1 04:56:00 10° SSW 05:15:50 39° SE 05:37:36 10° E visible
08 Jun 11.1 03:46:29 11° S 04:01:52 28° SE 04:20:53 10° E visible
